Chicopee, MA

1:06 AM EST on February 23, 2017 (GMT -0500)
Westover Air Reserve Base / Metropolitan Airport

Weather History for KCEF - July, 2013

Change the Weather History Date:

Sunday, July 28, 2013

  Actual Average Record
Temperature  
Mean Temperature 71 °F -  
Max Temperature 82 °F 79 °F 92 °F (2016)
Min Temperature 61 °F 59 °F 50 °F (2001)
Cooling Degree Days 6    
Growing Degree Days 21 (Base 50)    
Moisture  
Dew Point 65 °F    
Average Humidity 85    
Maximum Humidity 100    
Minimum Humidity 55    
Precipitation  
Precipitation 0.00 in - - ()
Sea Level Pressure  
Sea Level Pressure 29.99 in    
Wind  
Wind Speed 3 mph (ESE)    
Max Wind Speed 9 mph    
Max Gust Speed -    
Visibility 10 miles    
Events      
Averages and records for this station are not official NWS values.
T = Trace of Precipitation, MM = Missing Value Source: NWS Daily Summary

Daily Weather History Graph

Daily Weather History Graph

Search for Another Location

Airport or City:

Trip Planner

Search our weather history database for the weather conditions in past years. The results will help you decide how hot, cold, wet, or windy it might be!

Date:

Astronomy

Jul. 28, 2013 Rise Set
Actual Time 5:39 AM EDT 8:13 PM EDT
Civil Twilight 5:07 AM EDT 8:45 PM EDT
Nautical Twilight 4:27 AM EDT 9:25 PM EDT
Astronomical Twilight 3:41 AM EDT 10:10 PM EDT
Moon 11:24 PM EDT (7/28) 12:27 PM EDT (7/28)
Length of Visible Light 15h 38m
Length of Day
14h 34m
Waning Gibbous, 61% of the Moon is Illuminated
Jul 28
Waning Gibbous
Jul 29
Last Quarter
Aug 6
New
Aug 14
First Quarter
Aug 20
Full

Hourly Weather History & Observations

Time (EDT) Temp. Heat Index Dew Point Humidity Pressure Visibility Wind Dir Wind Speed Gust Speed Precip Events Conditions
12:58 AM 65.5 °F - 64.9 °F 98% 30.01 in 10.0 mi SSE 3.5 mph - N/A   Partly Cloudy
1:05 AM 64.4 °F - 64.4 °F 100% 30.00 in 10.0 mi South 3.5 mph - N/A   Mostly Cloudy
1:22 AM 64.4 °F - 64.4 °F 100% 30.00 in 10.0 mi SE 2.3 mph - N/A   Scattered Clouds
1:35 AM 62.6 °F - 62.6 °F 100% 30.00 in 10.0 mi Calm Calm - N/A   Mostly Cloudy
1:58 AM 64.2 °F - 64.0 °F 99% 30.02 in 10.0 mi ENE 1.2 mph - N/A   Overcast
2:49 AM 64.4 °F - 64.4 °F 100% 29.98 in 10.0 mi NNE 2.3 mph - N/A   Overcast
2:57 AM 64.4 °F - 64.4 °F 100% 29.98 in 10.0 mi NNE 3.5 mph - N/A   Overcast
2:58 AM 64.4 °F - 64.4 °F 100% 30.00 in 10.0 mi NNE 3.5 mph - N/A   Overcast
3:16 AM 64.4 °F - 64.4 °F 100% 29.98 in 10.0 mi East 4.6 mph - N/A   Scattered Clouds
3:58 AM 64.8 °F - 64.6 °F 99% 30.00 in 10.0 mi ENE 3.5 mph - N/A   Partly Cloudy
4:52 AM 62.6 °F - 60.8 °F 94% 29.98 in 8.0 mi NNE 2.3 mph - N/A   Partly Cloudy
4:58 AM 61.7 °F - 61.5 °F 99% 30.00 in 7.0 mi NNE 2.3 mph - N/A   Partly Cloudy
5:13 AM 62.6 °F - 62.6 °F 100% 29.98 in 6.0 mi WNW 2.3 mph - N/A   Mostly Cloudy
5:58 AM 63.1 °F - 63.0 °F 99% 30.00 in 10.0 mi ENE 2.3 mph - N/A   Overcast
6:32 AM 64.4 °F - 64.4 °F 100% 29.98 in 10.0 mi Variable 2.3 mph - N/A   Mostly Cloudy
6:58 AM 64.6 °F - 64.2 °F 99% 30.01 in 10.0 mi Calm Calm - N/A   Scattered Clouds
6:59 AM 64.4 °F - 64.4 °F 100% 29.99 in 10.0 mi Calm Calm - N/A   Scattered Clouds
7:16 AM 64.4 °F - 64.4 °F 100% 30.00 in 10.0 mi East 1.2 mph - N/A   Mostly Cloudy
7:58 AM 66.2 °F - 65.8 °F 99% 30.02 in 10.0 mi Variable 1.2 mph - N/A   Overcast
8:16 AM 66.2 °F - 66.2 °F 100% 30.01 in 10.0 mi North 1.2 mph - N/A   Mostly Cloudy
8:24 AM 66.2 °F - 66.2 °F 100% 30.01 in 10.0 mi Calm Calm - N/A   Mostly Cloudy
8:58 AM 69.4 °F - 67.1 °F 92% 30.04 in 10.0 mi NW 3.5 mph - N/A   Scattered Clouds
9:14 AM 69.8 °F - 66.2 °F 88% 30.02 in 10.0 mi West 3.5 mph - N/A   Mostly Cloudy
9:17 AM 69.8 °F - 66.2 °F 88% 30.01 in 10.0 mi Variable 2.3 mph - N/A   Mostly Cloudy
9:19 AM 69.8 °F - 66.2 °F 88% 30.01 in 10.0 mi NNW 2.3 mph - N/A   Mostly Cloudy
9:58 AM 72.5 °F - 65.8 °F 80% 30.01 in 10.0 mi Variable 1.2 mph - N/A   Scattered Clouds
10:58 AM 74.5 °F - 65.3 °F 73% 30.01 in 10.0 mi Variable 1.2 mph - N/A   Scattered Clouds
11:31 AM 75.2 °F - 64.4 °F 69% 29.98 in 10.0 mi Variable 1.2 mph - N/A   Partly Cloudy
11:58 AM 78.3 °F - 63.7 °F 61% 29.99 in 10.0 mi NW 1.2 mph - 0.00 in   Mostly Cloudy
12:10 PM 78.8 °F - 62.6 °F 57% 29.97 in 10.0 mi Calm Calm - N/A   Scattered Clouds
12:58 PM 79.7 °F - 63.9 °F 58% 29.98 in 10.0 mi Variable 3.5 mph - N/A   Mostly Cloudy
1:58 PM 81.9 °F 83.4 °F 64.2 °F 55% 29.98 in 10.0 mi South 6.9 mph - N/A   Mostly Cloudy
2:58 PM 80.8 °F 82.2 °F 63.9 °F 56% 29.98 in 10.0 mi SSE 4.6 mph - N/A   Scattered Clouds
3:58 PM 80.1 °F 81.6 °F 63.7 °F 57% 29.97 in 10.0 mi Variable 4.6 mph - N/A   Partly Cloudy
4:58 PM 78.8 °F - 65.3 °F 63% 29.97 in 10.0 mi Variable 3.5 mph - N/A   Clear
5:06 PM 78.8 °F - 66.2 °F 65% 29.95 in 10.0 mi Variable 2.3 mph - N/A   Light Drizzle
5:12 PM 78.8 °F - 66.2 °F 65% 29.95 in 10.0 mi SSE 3.5 mph - N/A   Partly Cloudy
5:55 PM 77.0 °F - 68.0 °F 74% 29.96 in 10.0 mi South 5.8 mph - N/A   Light Drizzle
5:58 PM 76.6 °F - 68.0 °F 75% 29.98 in 10.0 mi South 5.8 mph - 0.00 in   Light Drizzle
6:06 PM 75.2 °F - 68.0 °F 78% 29.97 in 10.0 mi SSW 5.8 mph - N/A   Clear
6:58 PM 75.7 °F - 66.9 °F 74% 29.98 in 10.0 mi South 6.9 mph - 0.00 in   Scattered Clouds
7:58 PM 74.5 °F - 66.4 °F 76% 30.00 in 10.0 mi South 9.2 mph - N/A   Partly Cloudy
8:58 PM 72.9 °F - 64.9 °F 76% 29.98 in 10.0 mi Variable 5.8 mph - N/A   Mostly Cloudy
9:58 PM 70.3 °F - 65.5 °F 85% 30.00 in 10.0 mi Calm Calm - N/A   Scattered Clouds
10:58 PM 69.8 °F - 65.3 °F 86% 30.02 in 10.0 mi ESE 3.5 mph - N/A   Mostly Cloudy
11:58 PM 70.2 °F - 64.2 °F 81% 30.01 in 10.0 mi South 3.5 mph - N/A   Mostly Cloudy